User: anonymous   Login
Location: Unspecified
(0.0000°N, 0.0000°E)
Time: 07:43:31
(UTC+02:00)
Language:

Cosmos 1125 Rocket - Orbit

View from above orbital plane
View from above orbital plane
View from above satellite
View from above satellite

Ground track
Ground track

The orbit data is extracted from the following two-line orbital elements,

1 11511U 79078B   17228.11400081  .00000117  00000-0  48303-4 0  9996
2 11511  74.0356 205.1539 0014405  73.1548 287.1184 14.36782499987225
Epoch (UTC): 16 August 2017 02:44:09
Eccentricity: 0.0014405
inclination: 74.0356°
perigee height: 759 km
apogee height: 779 km
right ascension of ascending node: 205.1539°
argument of perigee: 73.1548°
revolutions per day: 14.36782499
mean anomaly at epoch: 287.1184°
orbit number at epoch: 98722

The dashed part of the orbit path shows where the satellite is in the earth's shadow,  

DLR